Tracking 31027 objects as of 19-Jul-2025
HD Live streaming from Space Station
objects crossing your sky now

STARLINK-5165

Track STARLINK-5165 now!
10-day predictions
STARLINK-5165 is classified as:


NORAD ID: 54081
Int'l Code: 2022-136AG
Perigee: 546.1 km
Apogee: 547.7 km
Inclination: 53.2 °
Period: 95.4 minutes
Semi major axis: 6917 km
RCS: Unknown
Launch date: October 20, 2022
Source: United States (US)
Launch site: AIR FORCE EASTERN TEST RANGE (AFETR)
Your satellite tracking list
LANDSAT 5
Track 1 satellite(s)




NASA's NSSDC Master Catalog

Two Line Element Set (TLE):
1 54081U 22136AG  25199.58960929 -.00000074  00000-0  13415-4 0  9996
2 54081  53.2182 304.9912 0001139  88.7341 271.3782 15.08834502151647
Source of the keplerian elements: AFSPC